Regional Weather Roundup
Issued by NWS

Home | Current Version | Previous Version | Text Only | Print | Product List | Glossary Off
Versions: 1 2 3 4 5 6 7 8 9 10 11 12 13 14 15 16 17 18 19 20 21 22 23 24 25 26 27

000
ASUS45 KCYS 271210
RWRWY

WYOMING REGIONAL WEATHER ROUNDUP
NATIONAL WEATHER SERVICE CHEYENNE WY
600 AM MDT FRI MAY 27 2016

NOTE:  "FAIR" INDICATES FEW OR NO CLOUDS BELOW 12,000 FEET
WITH NO SIGNIFICANT WEATHER AND/OR OBSTRUCTIONS TO VISIBILITY.

WYZ001-271300-
YELLOWSTONE NATIONAL PARK

CITY           SKY/WX    TMP DP  RH WIND       PRES   REMARKS
LK YELLOWSTONE   N/A     32  31  96 CALM      30.06S
6HR MIN TEMP:  31; 6HR MAX TEMP:  33;

W YELLOWSTONE  NOT AVBL

$$
WYZ002>013-054>058-071-098>099-271300-
NORTHERN WYOMING

CITY           SKY/WX    TMP DP  RH WIND       PRES   REMARKS
JACKSON        FAIR      37  37 100 N3        30.01S
CODY           FAIR      41  36  81 S3        29.93S
GREYBULL       MOCLDY    46  43  89 E3        29.91F
6HR MIN TEMP:  45; 6HR MAX TEMP:  51;

WORLAND        FAIR      43  41  93 S7        29.92S
6HR MIN TEMP:  41; 6HR MAX TEMP:  49;

SHERIDAN       FAIR      41  37  86 W3        29.91R
6HR MIN TEMP:  38; 6HR MAX TEMP:  51;

BUFFALO        FAIR      48  34  58 W3        29.93S
6HR MIN TEMP:  41; 6HR MAX TEMP:  50;

GILLETTE       FAIR      46  40  79 VRB3      29.91R
6HR MIN TEMP:  38; 6HR MAX TEMP:  49;

HULETT         CLOUDY    48  43  81 SW5       29.91S
NEWCASTLE      FAIR      46  36  66 NW5       29.91R

$$
WYZ014>020-022>026-101>103-271300-
CENTRAL WYOMING

CITY           SKY/WX    TMP DP  RH WIND       PRES   REMARKS
BIG PINEY      MOCLDY    36  33  89 E6        30.03R WCI  31
6HR MIN TEMP:  33; 6HR MAX TEMP:  42;

PINEDALE       PTSUNNY   34  34 100 CALM      30.05S
DUBOIS         FAIR      32  28  86 W14       30.00S WCI  22
LANDER         FAIR      42  35  76 NW7       29.95S
6HR MIN TEMP:  42; 6HR MAX TEMP:  50; 6HR PCP: TRACE;

RIVERTON       MOCLDY    44  37  76 SW3       29.96S
6HR MIN TEMP:  42; 6HR MAX TEMP:  51; 6HR PCP: TRACE;

CASPER         MOCLDY    38  35  89 W8        29.95R WCI  32
6HR MIN TEMP:  37; 6HR MAX TEMP:  43;

DOUGLAS          N/A    N/A N/A N/A MISG      29.94R

$$
WYZ021-027>030-104>119-271300-
SOUTHERN WYOMING

CITY           SKY/WX    TMP DP  RH WIND       PRES   REMARKS
EVANSTON       FAIR      38  32  79 SW9       30.03S WCI  31
6HR MIN TEMP:  37; 6HR MAX TEMP:  42;

KEMMERER         N/A     36  32  87 N6        30.03S WCI  31
FORT BRIDGER   CLOUDY    43  37  81 W7        30.04S
ROCK SPRINGS   CLOUDY    43  41  93 CALM      30.01S
6HR MIN TEMP:  42; 6HR MAX TEMP:  45; 6HR PCP:  0.02;

DIXON          PTSUNNY   37  34  90 CALM      30.01S
RAWLINS        FAIR      40  34  79 W5        29.99R
6HR MIN TEMP:  37; 6HR MAX TEMP:  42;

SARATOGA       FAIR      34  34 100 E9        30.00R WCI  26
LARAMIE        CLOUDY    39  38  96 NW7       29.96S WCI  34
6HR MIN TEMP:  36; 6HR MAX TEMP:  40; 6HR PCP: TRACE;

CHEYENNE       FAIR      45  36  70 NW16      29.88F
6HR MIN TEMP:  44; 6HR MAX TEMP:  49;

TORRINGTON     CLOUDY    49  41  74 N9        29.84R
6HR MIN TEMP:  47; 6HR MAX TEMP:  50;

PINE BLUFFS    PTSUNNY   45  41  87 NW18      29.84R

$$




USA.gov is the U.S. government's official web portal to all federal, state and local government web resources and services.